Location: Sangrey
(48.2845°N, 109.8206°W)
Time: 01:12:43
(UTC+00:00)

Envisat - Pass Details

Date: 27 January 2022
Orbit: 764 x 765 km, 98.2° (Epoch: 22 May)

Event Time Altitude Azimuth Distance (km) Brightness Sun altitude
Rises 12:00:03 0° 17° (NNE) 3,242 6.5 -28.8°
Reaches altitude 10° 12:02:24 10° 21° (NNE) 2,312 5.7 -28.4°
Maximum altitude 12:07:26 58° 100° (E) 890 3.5 -27.6°
Drops below altitude 10° 12:12:25 10° 180° (S) 2,296 5.4 -26.8°
Sets 12:14:45 0° 184° (S) 3,218 6.2 -26.4°
